EW1707 Weather Reports


Display with metric or nautical units.
time (UTC)temp
F
wind
direction
speed
MPH
gust
MPH
rain 1hr
in
rain 24hr
in
rain mn
in
humidity
%
barometer
mb
20210618083129 65 261 5.0 11.0 0.00 0.00 0.00 27 1008.3
20210618081613 65 360 4.0 8.0 0.00 0.00 0.00 27 1008.3
20210618080102 65 241 5.0 12.0 0.00 0.00 0.00 27 1008.3
20210618074600 65 360 4.0 10.0 0.00 0.00 0.00 27 1008.2
20210618073102 64 360 6.0 11.0 0.00 0.00 0.00 29 1008.1
20210618071643 64 360 5.0 10.0 0.00 0.00 0.00 29 1008.1
20210618070042 63 360 5.0 10.0 0.00 0.00 0.00 29 1008.1
20210618064622 62 250 4.0 10.0 0.00 0.00 0.00 30 1008.1
20210618063048 63 360 4.0 8.0 0.00 0.00 0.00 32 1008.0
20210618061546 63 270 3.0 6.0 0.00 0.00 0.00 31 1008.1
20210618060040 64 267 4.0 7.0 0.00 0.00 0.00 32 1008.1
20210618054542 65 269 3.0 4.0 0.00 0.00 0.00 32 1008.2
20210618053033 65 263 0.0 7.0 0.00 0.00 0.00 32 1008.2
20210618051530 64 251 5.0 8.0 0.00 0.00 0.00 32 1008.3
20210618050044 64 188 0.0 3.0 0.00 0.00 0.00 31 1008.4
20210618044556 63 185 0.0 4.0 0.00 0.00 0.00 33 1008.3
20210618043030 64 187 0.0 0.0 0.00 0.00 0.00 32 1008.3
20210618041533 64 187 1.0 5.0 0.00 0.00 0.00 32 1008.2
20210618040046 65 176 1.0 7.0 0.00 0.00 0.00 32 1008.1
20210618034537 66 192 3.0 8.0 0.00 0.00 0.00 32 1008.1
20210618033013 65 360 5.0 7.0 0.00 0.00 0.00 30 1007.9
20210618031521 67 360 5.0 7.0 0.00 0.00 0.00 29 1007.8
20210618030025 69 137 3.0 7.0 0.00 0.00 0.00 28 1007.8
20210618024506 69 173 4.0 9.0 0.00 0.00 0.00 27 1007.8
20210618023007 70 180 2.0 5.0 0.00 0.00 0.00 28 1007.6
20210618021521 70 186 0.0 4.0 0.00 0.00 0.00 27 1007.9
20210618020012 71 155 2.0 7.0 0.00 0.00 0.00 29 1007.8
20210618014506 71 144 2.0 6.0 0.00 0.00 0.00 27 1008.0
20210618013005 72 355 1.0 3.0 0.00 0.00 0.00 28 1008.1
20210618011506 73 355 0.0 11.0 0.00 0.00 0.00 24 1008.3
20210618010005 73 9 5.0 14.0 0.00 0.00 0.00 23 1008.5
20210618004512 73 275 13.0 26.0 0.00 0.00 0.00 23 1008.7
20210618003224 74 360 6.0 14.0 0.00 0.00 0.00 23 1007.9
20210618001651 75 161 4.0 18.0 0.00 0.00 0.00 21 1007.2
20210618000132 75 157 5.0 17.0 0.00 0.00 0.00 22 1007.6
20210617234637 76 156 7.0 17.0 0.00 0.00 0.00 20 1007.9
20210617233119 78 153 3.0 10.0 0.00 0.00 0.00 19 1007.8
20210617231702 78 149 1.0 7.0 0.00 0.00 0.00 19 1007.8
20210617230224 79 153 4.0 15.0 0.00 0.00 0.00 18 1007.9
20210617224618 80 116 0.0 12.0 0.00 0.00 0.00 17 1007.8
20210617223138 81 114 3.0 12.0 0.00 0.00 0.00 17 1007.9
20210617221701 80 111 4.0 10.0 0.00 0.00 0.00 18 1008.0
20210617220137 80 59 3.0 7.0 0.00 0.00 0.00 19 1008.1
20210617214702 79 82 1.0 5.0 0.00 0.00 0.00 18 1008.3
20210617213103 79 98 0.0 5.0 0.00 0.00 0.00 19 1008.3
20210617211616 80 96 0.0 2.0 0.00 0.00 0.00 19 1008.4
20210617204558 80 77 1.0 6.0 0.00 0.00 0.00 16 1008.6
20210617203150 79 53 0.0 7.0 0.00 0.00 0.00 19 1008.6
20210617201627 80 84 0.0 7.0 0.00 0.00 0.00 19 1008.7
20210617200212 80 36 0.0 6.0 0.00 0.00 0.00 18 1008.9
20210617194640 80 54 2.0 8.0 0.00 0.00 0.00 17 1008.9
20210617193105 81 73 2.0 10.0 0.00 0.00 0.00 16 1009.2
20210617191545 82 100 2.0 7.0 0.00 0.00 0.00 17 1009.5
20210617190105 83 87 2.0 6.0 0.00 0.00 0.00 16 1009.9
20210617184615 83 360 0.0 8.0 0.00 0.00 0.00 12 1009.8
20210617183110 85 9 1.0 5.0 0.00 0.00 0.00 11 1009.9
20210617181536 87 323 4.0 10.0 0.00 0.00 0.00 11 1009.9
20210617180117 87 360 5.0 11.0 0.00 0.00 0.00 10 1010.2
20210617174617 87 301 2.0 11.0 0.00 0.00 0.00 10 1010.5
20210617173049 86 298 5.0 10.0 0.00 0.00 0.00 10 1010.6
20210617171544 85 360 6.0 14.0 0.00 0.00 0.00 10 1010.6
20210617170028 84 261 6.0 17.0 0.00 0.00 0.00 11 1010.6
20210617164537 83 360 3.0 13.0 0.00 0.00 0.00 12 1010.6
20210617163100 81 360 5.0 15.0 0.00 0.00 0.00 13 1010.7
20210617161516 79 286 5.0 13.0 0.00 0.00 0.00 13 1010.7
20210617160023 79 360 7.0 15.0 0.00 0.00 0.00 13 1010.8
20210617154510 78 360 7.0 13.0 0.00 0.00 0.00 15 1010.8
20210617153006 77 360 4.0 11.0 0.00 0.00 0.00 18 1010.8
20210617151503 76 360 6.0 13.0 0.00 0.00 0.00 19 1010.8
20210617150229 75 360 5.0 11.0 0.00 0.00 0.00 20 1010.9
20210617144648 74 360 7.0 14.0 0.00 0.00 0.00 19 1010.9
20210617143124 73 360 3.0 11.0 0.00 0.00 0.00 22 1010.8
20210617141627 71 269 6.0 11.0 0.00 0.00 0.00 21 1010.8
20210617140114 70 360 5.0 11.0 0.00 0.00 0.00 24 1010.8
20210617134644 69 283 7.0 17.0 0.00 0.00 0.00 24 1011.0
20210617133115 69 360 6.0 13.0 0.00 0.00 0.00 24 1010.8
20210617131634 68 188 6.0 11.0 0.00 0.00 0.00 24 1010.9
20210617130055 68 360 7.0 14.0 0.00 0.00 0.00 23 1010.9
20210617124558 68 360 6.0 14.0 0.00 0.00 0.00 23 1011.0
20210617123150 67 360 7.0 14.0 0.00 0.00 0.00 22 1011.0
20210617121626 67 360 7.0 17.0 0.00 0.00 0.00 22 1011.0
20210617120120 67 249 8.0 14.0 0.00 0.00 0.00 21 1010.9
20210617114625 67 267 7.0 17.0 0.00 0.00 0.00 21 1010.8
20210617113051 68 360 8.0 14.0 0.00 0.00 0.00 20 1010.7
20210617111610 68 360 7.0 15.0 0.00 0.00 0.00 20 1010.6
20210617110041 67 360 7.0 13.0 0.00 0.00 0.00 20 1010.6
20210617104533 67 360 7.0 13.0 0.00 0.00 0.00 20 1010.5
20210617103100 67 360 5.0 12.0 0.00 0.00 0.00 20 1010.4
20210617101543 67 254 4.0 9.0 0.00 0.00 0.00 20 1010.4
20210617100129 68 360 6.0 12.0 0.00 0.00 0.00 20 1010.4
20210617094616 68 360 4.0 12.0 0.00 0.00 0.00 20 1010.5
20210617093034 68 360 5.0 9.0 0.00 0.00 0.00 20 1010.5
20210617091559 69 360 5.0 10.0 0.00 0.00 0.00 20 1010.4
20210617090039 70 360 4.0 7.0 0.00 0.00 0.00 20 1010.5
20210617084626 70 360 5.0 13.0 0.00 0.00 0.00 20 1010.5